When you browse on this site, cookies collect data to enhance your experience and personalize the content and advertising you see.
Visit our Privacy Policy to learn more. By continuing to use the site, you agree to this use of cookies and data.
  • In Czech Republic
  • List of Countries
  • For 7 days
  • Water Temperature
  • Weather Map
  • Weather Widgets
  • user-avatar
    Login

    Hourly Weather Acapulco

    Today, 15 November, Friday

    Time Temperature Precipitation Wind Pressure Humidity
    00:00 +26°C° 0 mm 2 mps 756 mmHg 88%
    01:00 +25°C° 0 mm 2 mps 756 mmHg 88%
    02:00 +25°C° 0 mm 2 mps 756 mmHg 87%
    03:00 +25°C° 0 mm 2 mps 756 mmHg 86%
    04:00 +25°C° 0 mm 2 mps 756 mmHg 85%
    05:00 +25°C° 0 mm 2 mps 756 mmHg 84%
    06:00 +26°C° 0 mm 1 mps 756 mmHg 81%
    07:00 +28°C° 0 mm 1 mps 757 mmHg 77%
    08:00 +29°C° 0 mm 1 mps 757 mmHg 73%
    09:00 +30°C° 0 mm 1 mps 757 mmHg 70%
    10:00 +31°C° 0 mm 1 mps 757 mmHg 66%
    11:00 +32°C° 0 mm 1 mps 756 mmHg 62%
    12:00 +32°C° 0.1 mm 2 mps 756 mmHg 66%
    13:00 +31°C° 0.1 mm 2 mps 755 mmHg 71%
    14:00 +31°C° 0.1 mm 2 mps 754 mmHg 75%
    15:00 +30°C° 0.2 mm 3 mps 754 mmHg 80%
    16:00 +29°C° 0.2 mm 3 mps 755 mmHg 85%
    17:00 +28°C° 0.2 mm 3 mps 755 mmHg 90%
    18:00 +27°C° 0 mm 3 mps 755 mmHg 91%
    19:00 +27°C° 0 mm 3 mps 756 mmHg 91%
    20:00 +26°C° 0 mm 3 mps 757 mmHg 91%
    21:00 +26°C° 0 mm 3 mps 757 mmHg 90%
    22:00 +26°C° 0 mm 3 mps 757 mmHg 90%
    23:00 +25°C° 0 mm 3 mps 757 mmHg 89%

    Tomorrow, 16 November, Saturday

    Time Temperature Precipitation Wind Pressure Humidity
    00:00 +25°C° 0 mm 3 mps 756 mmHg 88%
    01:00 +25°C° 0 mm 3 mps 756 mmHg 87%
    02:00 +24°C° 0 mm 3 mps 755 mmHg 86%
    03:00 +24°C° 0 mm 2 mps 755 mmHg 85%
    04:00 +24°C° 0 mm 2 mps 755 mmHg 84%
    05:00 +24°C° 0 mm 2 mps 755 mmHg 83%
    06:00 +26°C° 0 mm 2 mps 756 mmHg 79%
    07:00 +27°C° 0 mm 2 mps 756 mmHg 74%
    08:00 +29°C° 0 mm 2 mps 756 mmHg 70%
    09:00 +31°C° 0 mm 2 mps 756 mmHg 64%
    10:00 +32°C° 0 mm 2 mps 756 mmHg 59%
    11:00 +35°C° 0 mm 2 mps 756 mmHg 53%
    12:00 +34°C° 0 mm 3 mps 755 mmHg 56%
    13:00 +34°C° 0 mm 3 mps 754 mmHg 59%
    14:00 +33°C° 0 mm 4 mps 753 mmHg 61%
    15:00 +31°C° 0 mm 3 mps 753 mmHg 69%
    16:00 +29°C° 0 mm 3 mps 753 mmHg 78%
    17:00 +28°C° 0 mm 3 mps 754 mmHg 86%
    18:00 +27°C° 0 mm 3 mps 754 mmHg 87%
    19:00 +27°C° 0 mm 3 mps 755 mmHg 89%
    20:00 +26°C° 0 mm 2 mps 755 mmHg 90%
    21:00 +26°C° 0 mm 2 mps 755 mmHg 89%
    22:00 +26°C° 0 mm 2 mps 755 mmHg 88%
    23:00 +26°C° 0 mm 2 mps 755 mmHg 87%

    Day after tomorrow, 17 November, Sunday

    Time Temperature Precipitation Wind Pressure Humidity
    00:00 +26°C° 0 mm 2 mps 755 mmHg 86%
    01:00 +25°C° 0 mm 2 mps 755 mmHg 85%
    02:00 +25°C° 0 mm 2 mps 754 mmHg 84%
    03:00 +25°C° 0 mm 2 mps 754 mmHg 83%
    04:00 +25°C° 0 mm 2 mps 754 mmHg 81%
    05:00 +25°C° 0 mm 2 mps 754 mmHg 80%
    06:00 +27°C° 0 mm 2 mps 755 mmHg 77%
    07:00 +28°C° 0 mm 2 mps 755 mmHg 73%
    08:00 +29°C° 0 mm 1 mps 755 mmHg 69%
    09:00 +31°C° 0 mm 1 mps 755 mmHg 65%
    10:00 +32°C° 0 mm 1 mps 755 mmHg 61%
    11:00 +33°C° 0 mm 1 mps 754 mmHg 57%
    12:00 +33°C° 0 mm 1 mps 754 mmHg 60%
    13:00 +34°C° 0 mm 2 mps 753 mmHg 63%
    14:00 +32°C° 0 mm 2 mps 753 mmHg 66%
    15:00 +31°C° 0.2 mm 2 mps 753 mmHg 73%
    16:00 +29°C° 0.2 mm 2 mps 753 mmHg 81%
    17:00 +28°C° 0.2 mm 2 mps 753 mmHg 88%
    18:00 +27°C° 0 mm 2 mps 754 mmHg 89%
    19:00 +27°C° 0 mm 2 mps 754 mmHg 90%
    20:00 +26°C° 0 mm 2 mps 755 mmHg 91%
    21:00 +26°C° 0 mm 2 mps 755 mmHg 90%
    22:00 +26°C° 0 mm 2 mps 755 mmHg 89%
    23:00 +26°C° 0 mm 2 mps 755 mmHg 88%

    18 November, Monday

    Time Temperature Precipitation Wind Pressure Humidity
    00:00 +26°C° 0 mm 2 mps 755 mmHg 87%
    01:00 +25°C° 0 mm 2 mps 754 mmHg 86%
    02:00 +25°C° 0 mm 1 mps 754 mmHg 85%
    03:00 +25°C° 0 mm 1 mps 754 mmHg 83%
    04:00 +25°C° 0 mm 1 mps 754 mmHg 82%
    05:00 +25°C° 0 mm 1 mps 754 mmHg 81%
    06:00 +26°C° 0 mm 1 mps 754 mmHg 77%
    07:00 +28°C° 0 mm 1 mps 755 mmHg 73%
    08:00 +30°C° 0 mm 1 mps 755 mmHg 70%
    09:00 +31°C° 0 mm 1 mps 755 mmHg 66%
    10:00 +32°C° 0 mm 1 mps 755 mmHg 63%
    11:00 +34°C° 0 mm 2 mps 754 mmHg 59%
    12:00 +32°C° 0 mm 2 mps 754 mmHg 62%
    13:00 +32°C° 0 mm 2 mps 753 mmHg 65%
    14:00 +32°C° 0 mm 2 mps 752 mmHg 68%
    15:00 +30°C° 0 mm 2 mps 752 mmHg 74%
    16:00 +29°C° 0 mm 1 mps 753 mmHg 80%
    17:00 +28°C° 0 mm 1 mps 753 mmHg 86%
    18:00 +28°C° 0.1 mm 1 mps 754 mmHg 87%
    19:00 +27°C° 0.1 mm 1 mps 754 mmHg 88%
    20:00 +27°C° 0.1 mm 1 mps 755 mmHg 89%
    21:00 +27°C° 0 mm 1 mps 755 mmHg 88%
    22:00 +27°C° 0 mm 1 mps 755 mmHg 87%
    23:00 +27°C° 0 mm 2 mps 755 mmHg 87%

    19 November, Tuesday

    Time Temperature Precipitation Wind Pressure Humidity
    00:00 +26°C° 0 mm 1 mps 755 mmHg 86%
    01:00 +26°C° 0 mm 1 mps 754 mmHg 86%
    02:00 +26°C° 0 mm 1 mps 754 mmHg 85%
    03:00 +26°C° 0 mm 1 mps 754 mmHg 85%
    04:00 +26°C° 0 mm 1 mps 754 mmHg 85%
    05:00 +26°C° 0 mm 1 mps 754 mmHg 85%
    06:00 +27°C° 0 mm 1 mps 755 mmHg 81%
    07:00 +29°C° 0 mm 1 mps 755 mmHg 77%
    08:00 +28°C° 0 mm 0 mps 756 mmHg 73%
    09:00 +31°C° 0 mm 1 mps 755 mmHg 70%
    10:00 +32°C° 0 mm 1 mps 755 mmHg 66%
    11:00 +34°C° 0 mm 2 mps 755 mmHg 62%
    12:00 +32°C° 0 mm 2 mps 754 mmHg 65%
    13:00 +32°C° 0 mm 2 mps 753 mmHg 68%
    14:00 +31°C° 0 mm 3 mps 753 mmHg 70%
    15:00 +30°C° 0 mm 3 mps 753 mmHg 76%
    16:00 +29°C° 0 mm 2 mps 753 mmHg 82%
    17:00 +28°C° 0 mm 2 mps 754 mmHg 87%
    18:00 +28°C° 0 mm 2 mps 754 mmHg 88%
    19:00 +27°C° 0 mm 2 mps 755 mmHg 89%
    20:00 +27°C° 0 mm 1 mps 756 mmHg 91%
    21:00 +27°C° 0 mm 1 mps 756 mmHg 91%
    22:00 +27°C° 0 mm 1 mps 756 mmHg 91%
    23:00 +26°C° 0 mm 1 mps 756 mmHg 91%

    20 November, Wednesday

    Time Temperature Precipitation Wind Pressure Humidity
    00:00 +26°C° 0.1 mm 1 mps 755 mmHg 91%
    01:00 +26°C° 0.1 mm 1 mps 755 mmHg 91%
    02:00 +26°C° 0.1 mm 1 mps 755 mmHg 90%
    03:00 +26°C° 0.4 mm 1 mps 755 mmHg 89%
    04:00 +26°C° 0.4 mm 2 mps 755 mmHg 88%
    05:00 +26°C° 0.4 mm 2 mps 755 mmHg 87%
    06:00 +27°C° 0 mm 1 mps 756 mmHg 82%
    07:00 +28°C° 0 mm 1 mps 756 mmHg 78%
    08:00 +28°C° 0 mm 0 mps 756 mmHg 73%
    09:00 +31°C° 0 mm 1 mps 756 mmHg 69%
    10:00 +32°C° 0 mm 1 mps 756 mmHg 65%
    11:00 +34°C° 0 mm 2 mps 755 mmHg 61%
    12:00 +32°C° 0.1 mm 2 mps 755 mmHg 64%
    13:00 +33°C° 0.1 mm 3 mps 754 mmHg 66%
    14:00 +31°C° 0.1 mm 3 mps 754 mmHg 69%
    15:00 +30°C° 0 mm 3 mps 754 mmHg 75%
    16:00 +29°C° 0 mm 3 mps 754 mmHg 81%
    17:00 +28°C° 0 mm 2 mps 754 mmHg 87%
    18:00 +28°C° 0 mm 2 mps 755 mmHg 88%
    19:00 +27°C° 0 mm 2 mps 755 mmHg 89%
    20:00 +27°C° 0 mm 2 mps 756 mmHg 90%
    21:00 +27°C° 0.1 mm 2 mps 756 mmHg 90%
    22:00 +27°C° 0.1 mm 2 mps 756 mmHg 90%
    23:00 +26°C° 0.1 mm 2 mps 756 mmHg 90%
    Show more